Location: Unspecified
(0.0000°N, 0.0000°E)
Time: 11:59:47
(UTC+01:00)

Meteor PRIRODA - Visible Passes

Search period start: 28 November 2014 00:00
Search period end: 08 December 2014 00:00
Orbit: 507 x 532 km, 97.3° (Epoch: 27 November)

Date Brightness Start Highest point End Pass type
(mag) Time Alt. Az. Time Alt. Az. Time Alt. Az.
28 Nov 6.1 05:05:39 10° NE 05:08:46 24° ESE 05:11:54 10° SSE visible
29 Nov 6.8 04:52:50 10° ENE 04:55:06 15° ESE 04:57:22 10° SE visible
30 Nov 4.8 06:12:07 10° NNW 06:15:16 25° W 06:18:26 10° SW visible
01 Dec 4.1 05:57:58 10° N 06:01:33 41° W 06:05:11 10° SSW visible
02 Dec 3.6 05:44:04 10° N 05:47:50 72° W 05:51:40 10° SSW visible
03 Dec 4.1 05:30:21 10° NNE 05:34:07 66° E 05:37:55 10° S visible
04 Dec 5.2 05:16:50 10° NNE 05:20:23 38° E 05:23:57 10° S visible
05 Dec 6.2 05:03:34 10° NE 05:06:38 23° ESE 05:09:43 10° SSE visible
06 Dec 6.9 04:50:44 10° ENE 04:52:53 15° ESE 04:55:01 10° SE visible
07 Dec 4.7 06:09:43 10° NNW 06:12:58 27° W 06:16:14 10° SW visible
